Weather Roundup
Issued by NWS Chicago, IL

Home | Current Version | Previous Version | Text Only | Print | Product List | Glossary On
Versions: 1 2 3 4 5 6 7 8 9 10 11 12 13 14 15 16 17 18 19 20 21 22 23 24 25 26 27 28 29 30 31 32 33 34 35 36 37 38 39 40 41 42 43 44 45 46 47 48 49 50
000
NZUS59 KLOT 262110
HRRLOT

CHICAGO AREA WEATHER ROUNDUP
NATIONAL WEATHER SERVICE CHICAGO/ROMEOVILLE IL
300 PM CST FRI DEC 26 2014

NOTE: "FAIR" INDICATES FEW OR NO CLOUDS BELOW 12,000 FEET WITH NO
SIGNIFICANT WEATHER AND/OR OBSTRUCTIONS TO VISIBILITY.

* THESE STATIONS ARE NOT UNDER NWS QUALITY CONTROL. THEY ALSO MAY NOT
  REPORT WEATHER SUCH AS PRECIPITATION OR FOG.

ILZ005-006-012>014-019>023-262200-
NORTHEAST ILLINOIS

CITY           SKY/WX    TMP DP  RH WIND       PRES   REMARKS
OHARE          PTSUNNY   49  38  65 S10       29.98S
MIDWAY         PTSUNNY   51  39  63 SW13      30.00S
AURORA         MOSUNNY   51  39  63 S10       29.99S
LANSING*       MOSUNNY   49  42  74 SW9       30.02R
JOLIET*        MOSUNNY   49  39  68 SW7       30.01R
WAUKEGAN       PTSUNNY   49  36  61 S12       29.98R
DUPAGE AIRPORT MOSUNNY   49  39  68 S12       29.98S
WHEELING       PTSUNNY   49  37  63 S10       30.00R
KANKAKEE*      PTSUNNY   52  44  73 S12       30.03S
MORRIS*        MOSUNNY   50  43  75 SW9       29.99S
LEWIS AIRPORT* MOSUNNY   49  39  67 SW10      30.00S
NORTHERLY IS     N/A     49  37  63 SW9         N/A
$$

WIZ051-052-058>065-066-070>072-262200-
SOUTHEAST WISCONSIN

CITY           SKY/WX    TMP DP  RH WIND       PRES   REMARKS
MILWAUKEE      PTSUNNY   48  35  60 SW10      29.98R
KENOSHA*       PTSUNNY   49  38  65 S12       29.98R
RACINE*        PTSUNNY   48  36  63 SW8       29.99R
BURLINGTON     PTSUNNY   46  36  67 SW8       29.97R
WAUKESHA       MOSUNNY   45  34  65 SW12      29.94F
WEST BEND      MOSUNNY   43  32  65 SW5       29.97R
$$

INZ001>003-010>013-019-020-262200-
NORTHWEST INDIANA

CITY           SKY/WX    TMP DP  RH WIND       PRES   REMARKS
GARY*          PTSUNNY   52  36  54 SW8       30.02S
MICHIGAN CITY* NOT AVBL
RENSSELAER*    NOT AVBL
VALPARAISO     MOSUNNY   50  39  66 SW10      30.03S
$$

LMZ740>746-262200-
SOUTHERN LAKE MICHIGAN

STATION/POSITION TIME  SKY/WX   TEMP WIND        PRES    VSBY
                                AIR  DIR/SP/G
                 (UTC)          (F)  (DEG/KT/KT) (MB)    (MI)
HARRISON CRIB    2100            47  190/ 15/ 16   N/A
BURNHAM HARBOR   2100            49  200/  8/ 15   N/A
CALUMET HARBOR   2100            49              1015.0R
BURNS HARBOR     NOT AVBL
MICHIGAN CITY    2100            49  190/ 10/ 12   N/A
$$

ABBREVIATIONS USED IN REMARKS
   TC - TEMPERATURE IN CELSIUS
  WCI - WIND CHILL INDEX
   HX - HEAT INDEX
  VSB - VISIBILITY
$$


USA.gov is the U.S. government's official web portal to all federal, state and local government web resources and services.